"read_dt","SO2 (ppb)","flags","PMT voltage (V)","lamp voltage (V)","lamp intensity (Hz)","internal temp (C)","react chamber temp (C)","sample flow (l/min)","pres (mmHg)","SO2 bkg (ppb)","SO2 coefficient"
2017-01-15 00:00:00,1626E-3,5C000000,-0724,0840,12082,029.1,045.5,0.438,754.7,01.17,0.508
2017-01-15 00:01:00,1707E-3,5C000000,-0724,0840,12093,029.1,045.5,0.439,754.8,01.17,0.508
2017-01-15 00:02:00,1670E-3,5C000000,-0724,0840,12091,029.1,045.5,0.439,754.8,01.17,0.508
2017-01-15 00:03:00,1774E-3,5C000000,-0724,0840,12048,029.1,045.5,0.439,754.9,01.17,0.508
2017-01-15 00:04:00,1717E-3,5C000000,-0724,0839,11918,029.1,045.5,0.439,754.9,01.17,0.508
2017-01-15 00:05:00,1643E-3,5C000000,-0724,0840,12033,029.1,045.5,0.438,754.9,01.17,0.508
2017-01-15 00:06:00,1741E-3,5C000000,-0724,0839,12023,029.1,045.5,0.439,754.9,01.17,0.508
2017-01-15 00:07:00,1686E-3,5C000000,-0724,0840,12107,029.1,045.5,0.439,754.8,01.17,0.508
2017-01-15 00:08:00,1610E-3,5C000000,-0724,0839,12048,029.1,045.5,0.439,754.9,01.17,0.508
2017-01-15 00:09:00,1795E-3,5C000000,-0724,0840,11971,029.1,045.5,0.439,754.9,01.17,0.508
2017-01-15 00:10:00,1789E-3,5C000000,-0724,0841,12128,029.1,045.5,0.439,755.0,01.17,0.508
2017-01-15 00:11:00,1709E-3,5C000000,-0724,0839,12095,029.1,045.5,0.439,755.1,01.16,0.508
2017-01-15 00:12:00,1683E-3,5C000000,-0724,0840,12033,029.1,045.5,0.439,755.1,01.16,0.508
2017-01-15 00:13:00,1675E-3,5C000000,-0724,0840,11980,029.1,045.5,0.439,755.1,01.16,0.508
2017-01-15 00:14:00,1752E-3,5C000000,-0724,0840,12063,029.0,045.5,0.439,755.2,01.16,0.508
2017-01-15 00:15:00,1641E-3,5C000000,-0724,0839,12198,029.1,045.5,0.439,755.2,01.16,0.508
2017-01-15 00:16:00,1744E-3,5C000000,-0724,0839,11897,029.0,045.5,0.439,755.2,01.16,0.508
2017-01-15 00:17:00,1674E-3,5C000000,-0724,0839,12095,029.0,045.5,0.439,755.2,01.16,0.508
2017-01-15 00:18:00,1748E-3,5C000000,-0724,0841,12100,029.0,045.5,0.439,755.2,01.16,0.508
2017-01-15 00:19:00,1643E-3,5C000000,-0724,0840,12026,029.0,045.5,0.439,755.1,01.16,0.508
2017-01-15 00:20:00,1727E-3,5C000000,-0724,0840,12085,029.0,045.5,0.439,755.1,01.16,0.508
2017-01-15 00:21:00,1703E-3,5C000000,-0724,0840,12124,029.0,045.5,0.440,755.1,01.16,0.508
2017-01-15 00:22:00,1743E-3,5C000000,-0724,0839,11878,029.0,045.5,0.439,755.1,01.16,0.508
2017-01-15 00:23:00,1780E-3,5C000000,-0724,0840,12146,029.0,045.5,0.439,755.0,01.17,0.508
2017-01-15 00:24:00,1805E-3,5C000000,-0724,0840,12025,029.0,045.5,0.439,755.0,01.17,0.508
2017-01-15 00:25:00,1635E-3,5C000000,-0724,0840,11909,029.0,045.5,0.439,755.0,01.17,0.508
2017-01-15 00:26:00,1819E-3,5C000000,-0724,0840,12035,029.0,045.5,0.440,755.0,01.17,0.508
2017-01-15 00:27:00,1765E-3,5C000000,-0724,0840,11989,029.0,045.5,0.440,755.0,01.17,0.508
2017-01-15 00:28:00,1836E-3,5C000000,-0724,0840,12096,029.0,045.5,0.439,755.0,01.17,0.508
2017-01-15 00:29:00,1753E-3,5C000000,-0724,0840,12004,029.0,045.5,0.439,755.0,01.17,0.508
2017-01-15 00:30:00,1779E-3,5C000000,-0724,0840,11970,029.0,045.5,0.439,755.0,01.17,0.508
2017-01-15 00:31:00,1717E-3,5C000000,-0724,0840,12103,029.0,045.5,0.439,755.0,01.17,0.508
2017-01-15 00:32:00,1673E-3,5C000000,-0724,0839,12025,029.0,045.5,0.439,755.0,01.17,0.508
2017-01-15 00:33:00,1559E-3,5C000000,-0724,0840,11913,029.0,045.5,0.440,755.0,01.17,0.508
2017-01-15 00:34:00,1782E-3,5C000000,-0724,0840,12058,029.0,045.5,0.440,755.0,01.17,0.508
2017-01-15 00:35:00,1698E-3,5C000000,-0724,0839,12022,029.0,045.5,0.440,755.0,01.17,0.508
2017-01-15 00:36:00,1782E-3,5C000000,-0724,0840,11957,029.0,045.5,0.439,755.1,01.16,0.508
2017-01-15 00:37:00,1788E-3,5C000000,-0724,0840,12139,029.0,045.5,0.439,755.1,01.16,0.508
2017-01-15 00:38:00,1723E-3,5C000000,-0724,0839,11921,029.0,045.5,0.439,755.0,01.17,0.508
2017-01-15 00:39:00,1811E-3,5C000000,-0724,0840,12037,029.0,045.5,0.439,755.0,01.17,0.508
2017-01-15 00:40:00,1772E-3,5C000000,-0724,0839,12043,029.0,045.5,0.439,755.0,01.17,0.508
2017-01-15 00:41:00,1671E-3,5C000000,-0724,0839,12112,029.0,045.5,0.439,755.0,01.17,0.508
2017-01-15 00:42:00,1664E-3,5C000000,-0724,0840,12112,029.0,045.5,0.440,755.0,01.17,0.508
2017-01-15 00:43:00,1709E-3,5C000000,-0724,0840,12054,029.0,045.5,0.440,754.9,01.17,0.508
2017-01-15 00:44:00,1761E-3,5C000000,-0724,0839,12176,029.0,045.5,0.439,755.0,01.17,0.508
2017-01-15 00:45:00,1749E-3,5C000000,-0724,0840,12083,029.0,045.5,0.439,755.0,01.17,0.508
2017-01-15 00:46:00,1786E-3,5C000000,-0724,0839,11991,029.0,045.5,0.439,755.0,01.17,0.508
2017-01-15 00:47:00,1799E-3,5C000000,-0724,0839,11955,029.0,045.5,0.439,754.9,01.17,0.508
2017-01-15 00:48:00,1719E-3,5C000000,-0724,0839,12089,029.0,045.5,0.439,754.9,01.17,0.508
2017-01-15 00:49:00,1772E-3,5C000000,-0724,0839,12058,029.0,045.5,0.439,754.9,01.17,0.508
2017-01-15 00:50:00,1822E-3,5C000000,-0724,0839,11887,029.0,045.5,0.439,754.8,01.17,0.508
2017-01-15 00:51:00,1720E-3,5C000000,-0724,0840,12043,029.0,045.5,0.439,754.9,01.17,0.508
2017-01-15 00:52:00,1803E-3,5C000000,-0724,0839,12066,029.0,045.5,0.439,754.8,01.17,0.508
2017-01-15 00:53:00,1897E-3,5C000000,-0724,0840,12110,029.0,045.5,0.440,754.8,01.17,0.508
2017-01-15 00:54:00,1758E-3,5C000000,-0724,0840,12092,029.0,045.5,0.439,754.9,01.17,0.508
2017-01-15 00:55:00,1799E-3,5C000000,-0724,0840,12102,029.0,045.5,0.439,754.9,01.17,0.508
2017-01-15 00:56:00,1788E-3,5C000000,-0724,0839,12085,029.0,045.5,0.439,754.9,01.17,0.508
2017-01-15 00:57:00,1870E-3,5C000000,-0724,0840,12213,029.0,045.5,0.439,754.8,01.17,0.508
2017-01-15 00:58:00,1927E-3,5C000000,-0724,0839,11917,029.0,045.5,0.439,754.8,01.17,0.508
2017-01-15 00:59:00,1798E-3,5C000000,-0724,0840,11936,029.0,045.5,0.439,754.8,01.17,0.508
2017-01-15 01:00:00,1698E-3,5C000000,-0724,0840,12145,029.0,045.5,0.439,754.7,01.17,0.508
2017-01-15 01:01:00,1785E-3,5C000000,-0724,0840,11945,028.9,045.5,0.440,754.7,01.17,0.508
2017-01-15 01:02:00,1775E-3,5C000000,-0724,0840,12118,029.0,045.5,0.439,754.7,01.17,0.508
2017-01-15 01:03:00,1787E-3,5C000000,-0724,0840,11838,029.0,045.5,0.439,754.6,01.17,0.508
2017-01-15 01:04:00,1747E-3,5C000000,-0724,0840,12161,029.0,045.5,0.439,754.7,01.17,0.508
2017-01-15 01:05:00,1686E-3,5C000000,-0724,0840,12082,028.9,045.5,0.439,754.8,01.17,0.508
2017-01-15 01:06:00,1671E-3,5C000000,-0724,0839,12084,028.9,045.5,0.439,754.8,01.17,0.508
2017-01-15 01:07:00,1772E-3,5C000000,-0724,0840,12043,028.9,045.5,0.439,754.8,01.17,0.508
2017-01-15 01:08:00,1752E-3,5C000000,-0724,0840,11988,028.9,045.5,0.440,754.8,01.17,0.508
2017-01-15 01:09:00,1782E-3,5C000000,-0724,0839,12044,028.9,045.5,0.440,754.8,01.17,0.508
2017-01-15 01:10:00,1761E-3,5C000000,-0724,0840,11939,028.9,045.5,0.439,754.9,01.17,0.508
2017-01-15 01:11:00,1651E-3,5C000000,-0724,0840,12097,028.9,045.5,0.439,754.9,01.17,0.508
2017-01-15 01:12:00,1740E-3,5C000000,-0724,0841,11896,028.9,045.5,0.439,755.0,01.17,0.508
2017-01-15 01:13:00,1696E-3,5C000000,-0724,0840,12114,028.9,045.5,0.439,755.0,01.17,0.508
2017-01-15 01:14:00,1718E-3,5C000000,-0724,0840,11996,028.9,045.5,0.439,755.0,01.17,0.508
2017-01-15 01:15:00,1835E-3,5C000000,-0724,0840,11869,028.9,045.5,0.440,755.0,01.17,0.508
2017-01-15 01:16:00,1726E-3,5C000000,-0724,0841,11864,028.9,045.5,0.440,755.1,01.16,0.508
2017-01-15 01:17:00,1666E-3,5C000000,-0724,0840,12077,028.9,045.5,0.439,755.0,01.17,0.508
2017-01-15 01:18:00,1842E-3,5C000000,-0724,0840,12043,028.9,045.5,0.439,755.1,01.16,0.508
2017-01-15 01:19:00,1644E-3,5C000000,-0724,0840,11848,028.9,045.5,0.439,755.1,01.16,0.508
2017-01-15 01:20:00,1663E-3,5C000000,-0724,0839,12041,028.9,045.5,0.439,755.1,01.16,0.508
2017-01-15 01:21:00,1800E-3,5C000000,-0724,0840,12037,028.9,045.5,0.439,755.0,01.17,0.508
2017-01-15 01:22:00,1717E-3,5C000000,-0724,0840,12100,028.9,045.5,0.439,755.1,01.16,0.508
2017-01-15 01:23:00,1836E-3,5C000000,-0724,0839,11973,028.9,045.5,0.440,755.1,01.16,0.508
2017-01-15 01:24:00,1627E-3,5C000000,-0724,0840,12006,028.9,045.5,0.440,755.2,01.16,0.508
2017-01-15 01:25:00,1751E-3,5C000000,-0724,0840,12000,028.9,045.5,0.440,755.2,01.16,0.508
2017-01-15 01:26:00,1787E-3,5C000000,-0724,0839,12174,028.9,045.5,0.440,755.2,01.16,0.508
2017-01-15 01:27:00,1625E-3,5C000000,-0724,0839,11951,028.9,045.5,0.439,755.2,01.16,0.508
2017-01-15 01:28:00,1722E-3,5C000000,-0724,0840,12036,028.9,045.5,0.439,755.2,01.16,0.508
2017-01-15 01:29:00,1823E-3,5C000000,-0724,0839,12096,028.9,045.5,0.439,755.2,01.16,0.508
2017-01-15 01:30:00,1682E-3,5C000000,-0724,0840,11879,028.9,045.5,0.439,755.2,01.16,0.508
2017-01-15 01:31:00,1671E-3,5C000000,-0724,0839,12095,028.9,045.5,0.439,755.2,01.16,0.508
2017-01-15 01:32:00,1840E-3,5C000000,-0724,0840,12036,028.9,045.4,0.439,755.2,01.16,0.508
2017-01-15 01:33:00,1655E-3,5C000000,-0724,0840,12076,028.9,045.5,0.439,755.1,01.16,0.508
2017-01-15 01:34:00,1758E-3,5C000000,-0724,0839,12087,028.9,045.5,0.440,755.1,01.16,0.508
2017-01-15 01:35:00,1727E-3,5C000000,-0724,0840,12094,028.9,045.5,0.440,755.2,01.16,0.508
2017-01-15 01:36:00,1751E-3,5C000000,-0724,0839,12054,028.9,045.5,0.440,755.1,01.16,0.508
2017-01-15 01:37:00,1716E-3,5C000000,-0724,0840,12106,028.9,045.5,0.439,754.8,01.17,0.508
2017-01-15 01:38:00,1707E-3,5C000000,-0724,0840,12031,028.9,045.5,0.439,755.0,01.17,0.508
2017-01-15 01:39:00,1727E-3,5C000000,-0724,0839,12035,028.9,045.5,0.439,755.0,01.17,0.508
2017-01-15 01:40:00,1843E-3,5C000000,-0724,0839,11896,028.9,045.5,0.439,755.0,01.17,0.508
2017-01-15 01:41:00,1738E-3,5C000000,-0724,0840,11964,028.9,045.5,0.439,755.0,01.17,0.508
2017-01-15 01:42:00,1863E-3,5C000000,-0724,0840,12100,028.9,045.5,0.439,755.0,01.17,0.508
2017-01-15 01:43:00,1804E-3,5C000000,-0724,0840,12068,028.9,045.5,0.439,755.0,01.17,0.508
2017-01-15 01:44:00,1741E-3,5C000000,-0724,0839,11901,028.9,045.5,0.440,755.0,01.17,0.508
2017-01-15 01:45:00,1751E-3,5C000000,-0724,0840,12039,028.9,045.5,0.440,755.1,01.16,0.508
2017-01-15 01:46:00,1901E-3,5C000000,-0724,0840,11975,028.9,045.5,0.439,755.0,01.17,0.508
2017-01-15 01:47:00,1716E-3,5C000000,-0724,0839,12045,028.9,045.5,0.439,755.1,01.16,0.508
2017-01-15 01:48:00,1795E-3,5C000000,-0724,0840,12039,028.9,045.5,0.439,755.1,01.16,0.508
2017-01-15 01:49:00,1765E-3,5C000000,-0724,0840,12117,028.9,045.5,0.439,755.1,01.16,0.508
2017-01-15 01:50:00,1743E-3,5C000000,-0724,0841,12051,028.9,045.5,0.439,755.1,01.16,0.508
2017-01-15 01:51:00,1910E-3,5C000000,-0724,0840,11975,028.9,045.5,0.440,755.2,01.16,0.508
2017-01-15 01:52:00,1709E-3,5C000000,-0724,0840,12033,028.9,045.5,0.440,755.2,01.16,0.508
2017-01-15 01:53:00,1731E-3,5C000000,-0724,0840,12054,028.9,045.5,0.440,755.2,01.16,0.508
2017-01-15 01:54:00,1770E-3,5C000000,-0724,0840,12015,028.9,045.5,0.439,755.1,01.16,0.508
2017-01-15 01:55:00,1828E-3,5C000000,-0724,0840,12104,028.9,045.5,0.439,755.1,01.16,0.508
2017-01-15 01:56:00,1684E-3,5C000000,-0724,0839,12045,028.9,045.5,0.439,755.0,01.17,0.508
2017-01-15 01:57:00,1751E-3,5C000000,-0724,0840,12079,028.9,045.5,0.439,755.0,01.17,0.508
2017-01-15 01:58:00,1721E-3,5C000000,-0724,0839,12015,028.9,045.5,0.439,755.1,01.16,0.508
2017-01-15 01:59:00,1693E-3,5C000000,-0724,0840,12124,028.9,045.5,0.439,755.1,01.16,0.508
2017-01-15 02:00:00,1768E-3,5C000000,-0724,0840,11987,028.9,045.5,0.439,755.0,01.17,0.508
2017-01-15 02:01:00,1728E-3,5C000000,-0724,0840,12095,028.9,045.5,0.439,755.0,01.17,0.508
2017-01-15 02:02:00,1806E-3,5C000000,-0724,0840,12113,028.9,045.5,0.440,755.1,01.16,0.508
2017-01-15 02:03:00,1729E-3,5C000000,-0724,0840,11972,028.9,045.5,0.440,755.2,01.16,0.508
2017-01-15 02:04:00,1754E-3,5C000000,-0724,0840,11978,028.9,045.5,0.440,755.2,01.16,0.508
2017-01-15 02:05:00,1866E-3,5C000000,-0724,0839,11966,029.0,045.5,0.440,755.2,01.16,0.508
2017-01-15 02:06:00,1677E-3,5C000000,-0724,0839,12175,029.0,045.5,0.439,755.2,01.16,0.508
2017-01-15 02:07:00,1753E-3,5C000000,-0724,0839,11954,029.0,045.5,0.439,755.1,01.16,0.508
2017-01-15 02:08:00,1796E-3,5C000000,-0724,0839,12071,028.9,045.5,0.439,755.1,01.16,0.508
2017-01-15 02:09:00,1769E-3,5C000000,-0724,0840,12065,029.0,045.5,0.439,755.1,01.16,0.508
2017-01-15 02:10:00,1829E-3,5C000000,-0724,0839,12108,029.0,045.5,0.439,755.0,01.17,0.508
2017-01-15 02:11:00,1919E-3,5C000000,-0724,0839,12051,029.0,045.5,0.439,755.0,01.17,0.508
2017-01-15 02:12:00,1891E-3,5C000000,-0724,0840,11981,029.0,045.5,0.439,755.0,01.17,0.508
2017-01-15 02:13:00,1850E-3,5C000000,-0724,0839,11957,029.0,045.5,0.439,755.0,01.17,0.508
2017-01-15 02:14:00,1951E-3,5C000000,-0724,0839,12091,029.0,045.5,0.439,754.9,01.17,0.508
2017-01-15 02:15:00,1741E-3,5C000000,-0724,0840,12064,029.0,045.5,0.439,755.0,01.17,0.508
2017-01-15 02:16:00,1779E-3,5C000000,-0724,0840,12046,029.0,045.5,0.440,755.1,01.16,0.508
2017-01-15 02:17:00,1789E-3,5C000000,-0724,0840,12164,029.0,045.5,0.439,755.0,01.17,0.508
2017-01-15 02:18:00,1786E-3,5C000000,-0724,0840,12021,029.0,045.5,0.439,755.2,01.16,0.508
2017-01-15 02:19:00,1820E-3,5C000000,-0724,0839,12010,029.0,045.5,0.439,755.2,01.16,0.508
2017-01-15 02:20:00,1664E-3,5C000000,-0724,0839,12029,029.0,045.5,0.439,755.2,01.16,0.508
2017-01-15 02:21:00,1746E-3,5C000000,-0724,0840,11972,029.0,045.5,0.439,755.2,01.16,0.508
2017-01-15 02:22:00,1641E-3,5C000000,-0724,0840,12032,029.0,045.5,0.439,755.2,01.16,0.508
2017-01-15 02:23:00,1815E-3,5C000000,-0724,0839,12099,029.0,045.5,0.439,755.2,01.16,0.508
2017-01-15 02:24:00,1710E-3,5C000000,-0724,0840,12045,029.0,045.5,0.439,755.2,01.16,0.508
2017-01-15 02:25:00,1899E-3,5C000000,-0724,0840,12088,029.0,045.5,0.440,755.2,01.16,0.508
2017-01-15 02:26:00,1768E-3,5C000000,-0724,0840,11978,029.0,045.5,0.439,755.2,01.16,0.508
2017-01-15 02:27:00,1600E-3,5C000000,-0724,0839,11921,029.0,045.5,0.439,755.1,01.16,0.508
2017-01-15 02:28:00,1752E-3,5C000000,-0724,0839,12054,029.0,045.5,0.439,755.0,01.17,0.508
2017-01-15 02:29:00,1779E-3,5C000000,-0724,0840,12066,029.0,045.5,0.439,754.9,01.17,0.508
2017-01-15 02:30:00,1905E-3,5C000000,-0724,0839,11977,029.0,045.5,0.438,754.9,01.17,0.508
2017-01-15 02:31:00,1787E-3,5C000000,-0724,0840,11980,029.0,045.5,0.439,754.9,01.17,0.508
2017-01-15 02:32:00,1808E-3,5C000000,-0724,0839,12180,029.0,045.5,0.439,755.1,01.16,0.508
2017-01-15 02:33:00,1887E-3,5C000000,-0724,0840,12087,029.0,045.5,0.440,755.1,01.16,0.508
2017-01-15 02:34:00,1697E-3,5C000000,-0724,0840,11902,029.0,045.5,0.439,755.2,01.16,0.508
2017-01-15 02:35:00,1835E-3,5C000000,-0724,0840,12066,029.0,045.5,0.439,755.2,01.16,0.508
2017-01-15 02:36:00,1784E-3,5C000000,-0724,0839,11972,029.0,045.5,0.439,755.2,01.16,0.508
2017-01-15 02:37:00,1845E-3,5C000000,-0724,0839,12015,029.0,045.5,0.439,755.2,01.16,0.508
2017-01-15 02:38:00,1856E-3,5C000000,-0724,0840,12061,029.0,045.5,0.439,755.2,01.16,0.508
2017-01-15 02:39:00,1995E-3,5C000000,-0724,0839,11957,029.0,045.5,0.439,755.2,01.16,0.508
2017-01-15 02:40:00,1765E-3,5C000000,-0724,0840,12102,029.0,045.5,0.439,755.1,01.16,0.508
2017-01-15 02:41:00,1644E-3,5C000000,-0724,0840,12050,029.0,045.5,0.439,755.1,01.16,0.508
2017-01-15 02:42:00,1742E-3,5C000000,-0724,0839,12120,029.0,045.5,0.439,755.0,01.17,0.508
2017-01-15 02:43:00,1867E-3,5C000000,-0724,0839,12039,029.0,045.5,0.439,755.0,01.17,0.508
2017-01-15 02:44:00,1764E-3,5C000000,-0724,0840,11983,029.0,045.5,0.439,755.0,01.17,0.508
2017-01-15 02:45:00,1929E-3,5C000000,-0724,0840,12117,029.1,045.5,0.439,755.0,01.17,0.508
2017-01-15 02:46:00,1768E-3,5C000000,-0724,0840,12051,029.1,045.5,0.439,755.1,01.16,0.508
2017-01-15 02:47:00,1768E-3,5C000000,-0724,0840,12014,029.0,045.5,0.439,755.1,01.16,0.508
2017-01-15 02:48:00,1863E-3,5C000000,-0724,0840,12011,029.0,045.5,0.440,755.1,01.16,0.508
2017-01-15 02:49:00,1726E-3,5C000000,-0724,0840,12047,029.0,045.5,0.439,755.0,01.17,0.508
2017-01-15 02:50:00,1834E-3,5C000000,-0724,0839,11902,029.0,045.5,0.439,755.1,01.16,0.508
2017-01-15 02:51:00,1870E-3,5C000000,-0724,0839,11920,029.1,045.5,0.439,755.1,01.16,0.508
2017-01-15 02:52:00,1881E-3,5C000000,-0724,0840,12178,029.1,045.5,0.439,755.1,01.16,0.508
2017-01-15 02:53:00,1814E-3,5C000000,-0724,0839,12124,029.0,045.5,0.439,755.1,01.16,0.508
2017-01-15 02:54:00,1808E-3,5C000000,-0724,0840,12144,029.1,045.5,0.439,755.1,01.16,0.508
2017-01-15 02:55:00,1863E-3,5C000000,-0724,0839,11992,029.1,045.5,0.439,754.9,01.17,0.508
2017-01-15 02:56:00,1874E-3,5C000000,-0724,0839,11985,029.1,045.5,0.439,754.9,01.17,0.508
2017-01-15 02:57:00,1710E-3,5C000000,-0724,0840,12160,029.1,045.5,0.439,754.9,01.17,0.508
2017-01-15 02:58:00,1689E-3,5C000000,-0724,0840,12151,029.0,045.5,0.439,754.9,01.17,0.508
2017-01-15 02:59:00,1706E-3,5C000000,-0724,0840,11922,029.0,045.5,0.439,754.9,01.17,0.508
2017-01-15 03:00:00,1812E-3,5C000000,-0724,0839,12047,029.0,045.5,0.439,754.9,01.17,0.508
2017-01-15 03:01:00,1790E-3,5C000000,-0724,0840,12267,029.0,045.5,0.439,754.9,01.17,0.508
2017-01-15 03:02:00,1711E-3,5C000000,-0724,0839,12119,029.0,045.5,0.439,754.8,01.17,0.508
2017-01-15 03:03:00,1859E-3,5C000000,-0724,0840,12006,029.0,045.5,0.440,754.9,01.17,0.508
2017-01-15 03:04:00,1662E-3,5C000000,-0724,0840,11958,029.1,045.5,0.439,754.9,01.17,0.508
2017-01-15 03:05:00,1831E-3,5C000000,-0724,0840,12034,029.0,045.5,0.439,754.9,01.17,0.508
2017-01-15 03:06:00,1781E-3,5C000000,-0724,0840,12062,029.1,045.5,0.439,755.0,01.17,0.508
2017-01-15 03:07:00,1832E-3,5C000000,-0724,0840,12064,029.1,045.5,0.439,755.0,01.17,0.508
2017-01-15 03:08:00,1841E-3,5C000000,-0724,0839,12065,029.1,045.5,0.439,755.0,01.17,0.508
2017-01-15 03:09:00,1824E-3,5C000000,-0724,0840,12041,029.1,045.5,0.438,755.0,01.17,0.508
2017-01-15 03:10:00,1648E-3,5C000000,-0724,0840,12043,029.1,045.5,0.439,754.9,01.17,0.508
2017-01-15 03:11:00,1943E-3,5C000000,-0724,0839,11991,029.0,045.5,0.439,755.0,01.17,0.508
2017-01-15 03:12:00,1690E-3,5C000000,-0724,0839,11925,029.1,045.5,0.439,754.9,01.17,0.508
2017-01-15 03:13:00,1973E-3,5C000000,-0724,0840,12094,029.1,045.5,0.439,755.0,01.17,0.508
2017-01-15 03:14:00,1802E-3,5C000000,-0724,0840,12074,029.1,045.5,0.439,755.0,01.17,0.508
2017-01-15 03:15:00,1730E-3,5C000000,-0724,0840,11886,029.1,045.5,0.439,754.9,01.17,0.508
2017-01-15 03:16:00,1876E-3,5C000000,-0724,0840,12013,029.1,045.5,0.439,754.9,01.17,0.508
2017-01-15 03:17:00,1858E-3,5C000000,-0724,0840,12018,029.1,045.5,0.439,754.9,01.17,0.508
2017-01-15 03:18:00,1692E-3,5C000000,-0724,0840,11997,029.1,045.5,0.439,754.9,01.17,0.508
2017-01-15 03:19:00,1901E-3,5C000000,-0724,0840,12088,029.1,045.5,0.438,754.9,01.17,0.508
2017-01-15 03:20:00,1869E-3,5C000000,-0724,0839,11959,029.1,045.5,0.439,754.8,01.17,0.508
2017-01-15 03:21:00,1873E-3,5C000000,-0724,0840,12080,029.1,045.5,0.439,754.7,01.17,0.508
2017-01-15 03:22:00,1896E-3,5C000000,-0724,0840,12134,029.1,045.5,0.439,754.7,01.17,0.508
2017-01-15 03:23:00,1936E-3,5C000000,-0724,0840,12123,029.1,045.5,0.439,754.6,01.17,0.508
2017-01-15 03:24:00,1880E-3,5C000000,-0724,0839,12057,029.1,045.5,0.439,754.6,01.17,0.508
2017-01-15 03:25:00,1724E-3,5C000000,-0724,0839,12163,029.1,045.5,0.438,754.6,01.17,0.508
2017-01-15 03:26:00,1763E-3,5C000000,-0724,0839,12103,029.1,045.5,0.439,754.6,01.17,0.508
2017-01-15 03:27:00,1790E-3,5C000000,-0724,0841,12162,029.0,045.5,0.439,754.5,01.17,0.508
2017-01-15 03:28:00,1780E-3,5C000000,-0724,0840,12047,029.1,045.5,0.439,754.6,01.17,0.508
2017-01-15 03:29:00,1843E-3,5C000000,-0724,0840,11990,029.1,045.5,0.439,754.6,01.17,0.508
2017-01-15 03:30:00,1699E-3,5C000000,-0724,0839,12000,029.0,045.5,0.439,754.6,01.17,0.508
2017-01-15 03:31:00,1627E-3,5C000000,-0724,0839,12061,029.0,045.5,0.439,754.5,01.17,0.508
2017-01-15 03:32:00,1783E-3,5C000000,-0724,0839,11953,029.0,045.5,0.438,754.5,01.17,0.508
2017-01-15 03:33:00,1787E-3,5C000000,-0724,0839,12016,029.0,045.5,0.439,754.4,01.17,0.508
2017-01-15 03:34:00,1723E-3,5C000000,-0724,0840,12097,029.0,045.5,0.439,754.4,01.17,0.508
2017-01-15 03:35:00,1788E-3,5C000000,-0724,0839,12079,029.0,045.5,0.439,754.5,01.17,0.508
2017-01-15 03:36:00,1634E-3,5C000000,-0724,0839,11722,029.0,045.5,0.439,754.5,01.17,0.508
2017-01-15 03:37:00,1664E-3,5C000000,-0724,0840,12101,029.0,045.5,0.439,754.6,01.17,0.508
2017-01-15 03:38:00,1721E-3,5C000000,-0724,0840,12063,029.0,045.5,0.439,754.6,01.17,0.508
2017-01-15 03:39:00,1795E-3,5C000000,-0724,0839,12110,029.0,045.5,0.439,754.7,01.17,0.508
2017-01-15 03:40:00,1642E-3,5C000000,-0724,0839,12071,029.0,045.5,0.439,754.8,01.17,0.508
2017-01-15 03:41:00,1926E-3,5C000000,-0724,0840,12181,029.0,045.5,0.439,754.9,01.17,0.508
2017-01-15 03:42:00,1821E-3,5C000000,-0724,0840,12061,029.0,045.5,0.439,754.9,01.17,0.508
2017-01-15 03:43:00,1698E-3,5C000000,-0724,0839,12067,029.0,045.5,0.439,754.9,01.17,0.508
2017-01-15 03:44:00,1821E-3,5C000000,-0724,0840,12007,029.0,045.5,0.439,754.8,01.17,0.508
2017-01-15 03:45:00,1833E-3,5C000000,-0724,0839,12036,029.0,045.5,0.439,754.9,01.17,0.508
2017-01-15 03:46:00,1790E-3,5C000000,-0724,0840,12032,029.0,045.5,0.439,754.9,01.17,0.508
2017-01-15 03:47:00,1742E-3,5C000000,-0724,0839,12044,029.0,045.5,0.440,754.8,01.17,0.508
2017-01-15 03:48:00,1777E-3,5C000000,-0724,0840,12143,029.0,045.5,0.439,754.7,01.17,0.508
2017-01-15 03:49:00,1782E-3,5C000000,-0724,0840,11979,029.0,045.5,0.439,754.7,01.17,0.508
2017-01-15 03:50:00,1753E-3,5C000000,-0724,0840,12033,029.0,045.5,0.439,754.7,01.17,0.508
2017-01-15 03:51:00,1773E-3,5C000000,-0724,0840,12058,029.0,045.5,0.439,754.6,01.17,0.508
2017-01-15 03:52:00,1811E-3,5C000000,-0724,0840,11957,029.0,045.5,0.439,754.7,01.17,0.508
2017-01-15 03:53:00,1824E-3,5C000000,-0724,0839,12143,029.0,045.5,0.439,754.7,01.17,0.508
2017-01-15 03:54:00,1680E-3,5C000000,-0724,0840,11996,029.0,045.5,0.439,754.6,01.17,0.508
2017-01-15 03:55:00,1727E-3,5C000000,-0724,0839,12107,029.0,045.5,0.439,754.6,01.17,0.508
2017-01-15 03:56:00,1682E-3,5C000000,-0724,0839,11818,029.0,045.5,0.440,754.6,01.17,0.508
2017-01-15 03:57:00,1967E-3,5C000000,-0724,0841,11912,029.0,045.5,0.440,754.6,01.17,0.508
2017-01-15 03:58:00,1726E-3,5C000000,-0724,0840,11933,029.0,045.5,0.439,754.6,01.17,0.508
2017-01-15 03:59:00,1626E-3,5C000000,-0724,0839,11931,029.0,045.5,0.439,754.6,01.17,0.508
2017-01-15 04:00:00,1831E-3,5C000000,-0724,0840,11968,029.0,045.5,0.439,754.6,01.17,0.508
2017-01-15 04:01:00,1697E-3,5C000000,-0724,0840,12092,029.0,045.5,0.439,754.6,01.17,0.508
2017-01-15 04:02:00,1919E-3,5C000000,-0724,0839,12028,028.9,045.5,0.439,754.6,01.17,0.508
2017-01-15 04:03:00,1859E-3,5C000000,-0724,0840,12135,028.9,045.5,0.439,754.6,01.17,0.508
2017-01-15 04:04:00,1738E-3,5C000000,-0724,0839,12102,029.0,045.5,0.440,754.7,01.17,0.508
2017-01-15 04:05:00,1819E-3,5C000000,-0724,0840,11986,028.9,045.5,0.440,754.7,01.17,0.508
2017-01-15 04:06:00,1786E-3,5C000000,-0724,0839,12037,028.9,045.5,0.439,754.7,01.17,0.508
2017-01-15 04:07:00,1808E-3,5C000000,-0724,0840,12045,028.9,045.5,0.439,754.7,01.17,0.508
2017-01-15 04:08:00,1785E-3,5C000000,-0724,0841,12037,028.9,045.5,0.439,754.7,01.17,0.508
2017-01-15 04:09:00,1750E-3,5C000000,-0724,0840,11981,028.9,045.5,0.439,754.6,01.17,0.508
2017-01-15 04:10:00,1820E-3,5C000000,-0724,0840,11892,028.9,045.5,0.439,754.6,01.17,0.508
2017-01-15 04:11:00,1665E-3,5C000000,-0724,0840,12073,028.9,045.5,0.439,754.6,01.17,0.508
2017-01-15 04:12:00,1880E-3,5C000000,-0724,0840,12071,028.9,045.5,0.439,754.5,01.17,0.508
2017-01-15 04:13:00,1649E-3,5C000000,-0724,0840,11975,028.9,045.5,0.439,754.5,01.17,0.508
2017-01-15 04:14:00,1672E-3,5C000000,-0724,0840,12079,028.9,045.5,0.439,754.4,01.17,0.508
2017-01-15 04:15:00,1782E-3,5C000000,-0724,0840,11997,028.9,045.5,0.439,754.4,01.17,0.508
2017-01-15 04:16:00,1826E-3,5C000000,-0724,0840,12013,028.9,045.5,0.439,754.3,01.17,0.508
2017-01-15 04:17:00,1788E-3,5C000000,-0724,0840,11918,028.9,045.5,0.439,754.4,01.17,0.508
2017-01-15 04:18:00,1725E-3,5C000000,-0724,0840,12012,028.9,045.5,0.439,754.3,01.17,0.508
2017-01-15 04:19:00,1740E-3,5C000000,-0724,0839,12008,028.9,045.5,0.439,754.4,01.17,0.508
2017-01-15 04:20:00,1738E-3,5C000000,-0724,0840,12002,028.9,045.5,0.439,754.3,01.17,0.508